Location: Unspecified
(0.0000°N, 0.0000°E)
Time: 16:23:25
(UTC+00:00)

Vanguard 3 - Pass Details

Date: 08 December 2017
Orbit: 508 x 3264 km, 33.3° (Epoch: 21 April)

Event Time Altitude Azimuth Distance (km) Brightness Sun altitude
Rises 05:06:14 0° 226° (SW) 7,132 11.7 -10.5°
Reaches altitude 10° 05:15:04 10° 205° (SSW) 5,742 11.5 -8.5°
Maximum altitude 05:23:14 15° 176° (S) 4,768 11.4 -6.6°
Drops below altitude 10° 05:29:55 10° 146° (SE) 4,570 12.0 -5.1°
Sets 05:35:19 0° 123° (ESE) 4,986 13.5 -3.8°
